User: anonymous   Login
Location: Unspecified
(0.0000°N, 0.0000°E)
Time: 22:00:44
(UTC+00:00)
Language:

Resurs 1-3 - Orbit

View from above orbital plane
View from above orbital plane
View from above satellite
View from above satellite

Ground track
Ground track

The orbit data is extracted from the following two-line orbital elements,

1 23342U 94074A   17082.64833927 +.00000083 +00000-0 +18377-4 0  9999
2 23342 098.0889 120.4235 0001713 073.8109 286.3290 14.79250797204866
Epoch (UTC): 23 March 2017 15:33:36
Eccentricity: 0.0001713
inclination: 98.0889°
perigee height: 630 km
apogee height: 633 km
right ascension of ascending node: 120.4235°
argument of perigee: 73.8109°
revolutions per day: 14.79250797
mean anomaly at epoch: 286.3290°
orbit number at epoch: 20486

The dashed part of the orbit path shows where the satellite is in the earth's shadow,  

DLR